Vorticity
3 5 3 3 3 8 8 5 3 5 4 4 7 6 3 3 2 3 1 4 6 4 3 7 5 0 4 3 6 4 6 9 7 8 7 6 5 3 4 3 3 3 1 7 4
3 4 4 5 5 6 5 3 4 6 7 9 5 4 5 5 7 9 5 5 4 6 6 6 3 4 5 5 6 3 13 9 6 6 8 8 8 7 5 5 5 4 6 5 5
7 6 7 7 7 7 6 5 7 10 5 3 3 4 7 11 10 5 6 1 2 8 3 2 3 4 7 5 -0 4 11 2 4 9 7 10 8 7 7 6 6 5 3 3 5
6 7 2 4 6 4 6 9 13 4 2 2 2 7 8 10 10 12 9 6 6 -2 -0 5 7 8 7 3 -0 6 5 2 13 6 6 4 9 7 5 8 9 7 8 6 4
4 1 2 4 4 1 5 5 4 3 1 -0 1 1 9 8 8 2 10 -1 6 -0 10 12 9 6 4 3 3 2 2 5 8 9 3 6 8 6 7 5 8 8 9 10 8
3 5 7 8 7 6 7 8 6 4 2 -0 5 2 2 5 7 6 -2 11 -6 13 9 5 3 1 3 3 4 2 4 6 6 4 5 5 13 8 7 9 7 7 7 6 10
10 8 7 7 4 3 2 3 4 8 7 4 9 8 2 5 12 4 9 8 5 5 7 4 3 4 3 4 6 4 2 5 5 8 6 9 7 8 9 9 8 11 10 11 8
6 6 5 4 5 5 4 4 6 8 11 13 7 6 15 19 15 9 8 9 8 7 5 5 6 5 7 8 7 2 4 10 9 8 9 9 8 8 8 7 8 8 7 8 9
6 4 4 5 4 7 6 6 11 11 10 15 15 10 8 7 9 9 8 5 4 4 5 6 5 5 8 6 6 10 8 11 12 8 8 5 6 5 6 6 4 5 4 4 4
8 7 8 8 9 5 7 6 5 12 10 4 8 10 -1 11 11 12 2 4 3 4 4 7 8 7 8 9 9 10 10 10 8 9 6 7 6 6 5 5 5 5 3 4 4
11 13 11 7 4 6 5 5 7 11 7 8 12 6 16 4 7 -0 2 1 7 6 10 7 6 7 9 12 14 12 10 10 9 6 7 8 7 4 5 6 6 7 10 10 8
7 7 6 8 4 7 5 4 3 0 4 16 -10 12 5 8 4 8 8 10 9 4 8 7 11 14 14 10 8 10 5 6 7 8 8 7 6 7 7 5 5 5 9 10 11
7 7 7 6 5 5 6 6 4 9 13 -0 12 8 8 5 7 7 8 2 4 10 11 11 10 10 7 8 5 8 7 6 6 4 10 10 6 7 7 12 12 11 13 16 14
7 6 7 8 8 9 7 9 7 -0 6 16 8 4 3 4 8 8 3 9 7 6 12 12 7 8 6 8 7 6 7 7 9 8 16 19 8 16 17 20 22 23 24 27 27
5 3 2 4 7 6 4 5 9 9 -3 3 6 -0 6 4 1 3 6 6 7 11 11 9 7 8 7 7 6 6 7 6 8 3 6 14 22 16 26 33 31 32 32 36 53
2 11 15 16 11 9 6 8 8 5 10 6 2 5 4 6 7 6 8 12 8 9 11 6 7 7 6 9 6 5 6 11 22 23 33 30 37 30 27 25 28 36 33 28 15
17 1 7 21 16 12 11 10 4 8 2 2 5 6 9 7 10 6 9 7 5 5 7 5 6 5 8 8 9 8 4 5 16 35 37 29 29 28 22 20 15 13 14 10 27
5 6 8 9 9 6 2 4 7 6 6 5 5 10 10 8 4 8 7 8 4 10 5 6 9 6 7 6 8 20 28 34 41 27 29 23 21 15 23 32 22 12 12 -1 -6
8 7 4 2 3 5 9 8 6 5 5 6 10 8 7 10 10 8 10 10 11 7 6 8 6 9 11 14 23 12 23 34 22 20 23 28 23 12 12 13 1 -7 3 20 21
9 9 9 9 9 10 6 6 6 5 8 11 7 10 8 8 10 13 9 8 7 7 6 4 15 9 16 32 29 30 29 23 11 16 20 16 4 -3 -3 3 11 12 20 3 7
5 10 7 10 5 4 8 6 4 9 8 7 7 6 9 8 9 7 5 6 7 6 5 8 12 10 29 33 27 16 10 13 18 14 10 8 22 13 21 16 -11 -10 9 13 16
3 7 6 5 10 10 9 9 11 4 4 7 7 11 9 9 9 8 6 5 4 6 6 6 16 27 24 26 17 15 10 11 12 10 9 3 8 9 8 2 9 26 8 3 18
9 10 13 11 11 5 8 7 3 3 5 10 10 8 12 9 10 7 7 4 6 8 6 8 12 28 28 20 16 5 7 8 9 7 5 8 10 10 13 24 26 14 5 6 3
17 15 8 10 6 8 2 -2 5 13 8 3 10 13 9 8 6 6 4 7 7 12 17 27 29 31 22 14 4 9 11 6 9 12 10 11 9 11 10 12 12 14 33 26 18
7 4 4 5 6 6 7 11 8 4 5 11 11 10 8 8 6 5 6 6 9 13 28 35 26 22 13 10 7 10 6 10 10 11 10 15 11 7 7 2 6 7 11 14 35
8 11 10 9 7 5 6 6 5 11 9 8 12 10 8 6 6 3 6 11 13 27 29 27 19 11 10 9 5 7 8 11 15 14 14 11 11 12 13 17 12 6 9 8 9
-2 -2 1 7 6 6 2 10 10 9 10 11 10 7 7 6 4 7 8 14 24 17 34 26 13 11 10 8 7 10 9 15 11 12 13 14 13 13 16 16 17 15 12 13 10
Height
5847 5847 5846 5844 5842 5841 5839 5838 5837 5835 5832 5830 5828 5825 5823 5820 5818 5816 5814 5812 5809 5807 5804 5802 5800 5798 5796 5794 5793 5791 5790 5790 5788 5785 5784 5783 5780 5778 5778 5780 5778 5779 5778 5779 5778
5846 5845 5843 5842 5840 5839 5837 5836 5834 5832 5830 5827 5825 5823 5820 5817 5815 5812 5810 5807 5805 5802 5800 5798 5796 5794 5791 5789 5787 5785 5785 5782 5780 5778 5776 5774 5772 5770 5769 5768 5770 5769 5768 5768 5768
5844 5843 5842 5840 5839 5837 5835 5833 5831 5829 5827 5825 5822 5819 5816 5814 5811 5808 5806 5804 5801 5798 5796 5793 5790 5788 5785 5782 5780 5779 5778 5774 5773 5769 5766 5766 5763 5761 5760 5758 5759 5759 5756 5753 5756
5842 5841 5839 5838 5836 5834 5832 5830 5828 5826 5824 5822 5819 5816 5812 5809 5808 5804 5801 5798 5796 5793 5791 5787 5785 5782 5780 5776 5774 5771 5769 5765 5765 5761 5757 5753 5751 5750 5747 5749 5750 5745 5744 5743 5742
5839 5838 5837 5835 5833 5832 5830 5827 5825 5823 5821 5818 5816 5812 5809 5806 5801 5798 5795 5793 5790 5788 5784 5781 5779 5776 5774 5770 5766 5763 5761 5756 5753 5750 5745 5743 5740 5736 5737 5733 5734 5732 5732 5731 5732
5837 5836 5834 5832 5830 5828 5826 5824 5822 5819 5816 5813 5810 5806 5803 5800 5796 5793 5790 5787 5784 5781 5777 5774 5771 5768 5765 5761 5757 5754 5750 5746 5743 5737 5732 5729 5727 5724 5722 5722 5719 5719 5716 5717 5718
5834 5833 5831 5829 5827 5824 5822 5819 5816 5813 5810 5807 5804 5799 5796 5793 5789 5786 5784 5780 5777 5773 5769 5765 5762 5758 5755 5750 5746 5743 5739 5733 5727 5723 5719 5715 5710 5707 5707 5706 5704 5705 5701 5703 5702
5830 5829 5827 5825 5823 5820 5818 5815 5812 5808 5804 5800 5797 5793 5789 5786 5783 5780 5776 5772 5769 5764 5761 5756 5751 5747 5743 5740 5735 5729 5725 5719 5712 5708 5703 5699 5694 5690 5689 5689 5688 5687 5685 5685 5684
5827 5825 5823 5821 5819 5816 5813 5810 5807 5803 5799 5795 5792 5787 5784 5782 5778 5774 5769 5765 5760 5755 5750 5745 5740 5735 5731 5727 5721 5716 5710 5705 5698 5693 5688 5682 5676 5672 5671 5671 5669 5668 5666 5664 5663
5824 5822 5820 5817 5814 5811 5809 5805 5801 5798 5794 5790 5787 5784 5780 5776 5771 5766 5762 5756 5751 5745 5740 5735 5728 5722 5717 5712 5706 5701 5696 5691 5683 5679 5673 5667 5658 5655 5652 5651 5651 5648 5643 5641 5642
5821 5819 5816 5814 5810 5807 5805 5801 5798 5795 5790 5785 5781 5778 5773 5768 5764 5758 5753 5747 5741 5736 5729 5723 5716 5710 5704 5698 5692 5687 5681 5675 5669 5662 5655 5646 5637 5635 5632 5628 5626 5623 5620 5618 5617
5818 5815 5812 5809 5807 5804 5800 5796 5792 5788 5784 5780 5776 5771 5767 5762 5757 5750 5744 5737 5730 5723 5717 5710 5703 5696 5689 5684 5676 5669 5664 5658 5650 5641 5633 5621 5613 5608 5606 5600 5596 5594 5592 5590 5588
5814 5812 5809 5806 5803 5799 5795 5791 5786 5781 5777 5773 5768 5764 5758 5752 5746 5740 5735 5726 5719 5710 5704 5697 5689 5682 5675 5668 5661 5652 5645 5637 5628 5619 5609 5596 5586 5580 5576 5571 5563 5559 5556 5554 5553
5812 5808 5805 5801 5799 5793 5789 5784 5780 5774 5770 5766 5760 5754 5748 5741 5736 5728 5720 5712 5704 5695 5687 5681 5673 5666 5659 5650 5643 5635 5625 5615 5605 5595 5587 5569 5557 5550 5543 5538 5533 5526 5522 5519 5518
5807 5804 5800 5795 5792 5788 5785 5779 5774 5768 5762 5757 5751 5745 5738 5733 5724 5719 5708 5700 5691 5683 5675 5667 5659 5652 5643 5634 5625 5617 5607 5596 5583 5570 5560 5545 5531 5522 5515 5508 5504 5501 5496 5494 5493
5803 5799 5794 5789 5784 5781 5777 5773 5768 5764 5755 5750 5743 5736 5730 5722 5715 5706 5699 5689 5679 5671 5662 5653 5644 5635 5627 5615 5605 5595 5584 5571 5557 5545 5533 5524 5512 5497 5495 5493 5489 5486 5484 5483 5482
5797 5793 5788 5783 5779 5775 5771 5767 5763 5755 5750 5743 5735 5728 5720 5712 5703 5694 5687 5679 5670 5658 5650 5636 5628 5617 5608 5598 5585 5574 5563 5552 5537 5525 5515 5501 5493 5491 5485 5482 5481 5481 5479 5477 5475
5793 5788 5783 5779 5774 5769 5765 5760 5754 5748 5741 5734 5726 5718 5709 5700 5692 5683 5674 5666 5657 5647 5636 5625 5610 5604 5589 5576 5565 5549 5538 5527 5515 5508 5501 5494 5489 5485 5480 5477 5476 5475 5474 5472 5470
5786 5782 5778 5773 5768 5763 5758 5752 5745 5739 5733 5724 5716 5708 5701 5690 5680 5672 5663 5654 5644 5634 5625 5610 5598 5584 5571 5556 5545 5532 5521 5511 5503 5498 5490 5487 5484 5480 5477 5475 5472 5470 5467 5465 5463
5781 5777 5772 5767 5762 5756 5752 5745 5738 5731 5723 5715 5707 5699 5689 5680 5671 5661 5651 5642 5632 5621 5609 5597 5581 5570 5554 5538 5525 5517 5512 5505 5495 5491 5487 5482 5479 5476 5474 5471 5468 5464 5462 5460 5458
5775 5771 5766 5761 5755 5750 5744 5737 5730 5723 5715 5707 5698 5688 5679 5670 5661 5651 5641 5630 5618 5606 5593 5580 5568 5553 5540 5529 5520 5512 5505 5497 5492 5487 5481 5476 5476 5470 5467 5465 5463 5460 5456 5453 5451
5769 5765 5759 5753 5749 5742 5736 5729 5723 5715 5706 5697 5688 5678 5669 5659 5649 5640 5630 5618 5604 5593 5581 5567 5552 5539 5529 5518 5513 5507 5500 5494 5488 5484 5478 5473 5470 5465 5461 5458 5453 5451 5449 5446 5443
5763 5758 5752 5747 5742 5735 5728 5721 5715 5706 5696 5687 5677 5669 5659 5650 5638 5628 5617 5606 5594 5580 5566 5552 5538 5527 5518 5513 5507 5502 5496 5489 5484 5479 5474 5469 5466 5459 5454 5451 5445 5441 5439 5437 5436
5756 5751 5747 5741 5734 5728 5721 5713 5706 5697 5688 5679 5669 5659 5649 5639 5628 5617 5606 5593 5581 5567 5552 5538 5526 5518 5513 5507 5503 5498 5492 5486 5480 5474 5469 5464 5459 5453 5449 5445 5440 5435 5430 5427 5426
5750 5745 5739 5733 5728 5721 5714 5706 5696 5688 5679 5670 5661 5651 5639 5628 5617 5606 5595 5582 5568 5554 5540 5529 5518 5511 5506 5502 5497 5491 5486 5480 5475 5469 5462 5458 5451 5447 5442 5438 5433 5429 5425 5421 5417
5742 5737 5733 5726 5720 5713 5705 5697 5688 5679 5669 5660 5651 5640 5630 5619 5608 5595 5583 5569 5556 5540 5530 5519 5512 5506 5502 5498 5492 5487 5480 5474 5469 5464 5457 5450 5446 5440 5436 5430 5425 5421 5419 5415 5411
5736 5731 5726 5720 5712 5705 5698 5689 5680 5670 5661 5652 5641 5631 5619 5607 5596 5585 5572 5557 5543 5530 5519 5511 5505 5502 5498 5492 5487 5482 5475 5468 5463 5458 5451 5445 5440 5434 5429 5423 5418 5415 5411 5407 5404